Location: Newark
(10.3333°N, 37.7167°E)
Time: 20:23:38
(UTC+00:00)

LightSail 2 - Pass Details

Date: 27 January 2020
Orbit: 699 x 722 km, 24.0° (Epoch: 22 February)

Event Time Altitude Azimuth Distance (km) Brightness Sun altitude
Rises 17:08:44 0° 300° (WNW) 3,077 9.1 -23.7°
Reaches altitude 10° 17:11:14 10° 306° (NW) 2,163 8.1 -24.3°
Enters shadow 17:15:19 43° 351° (N) 986 5.7 -25.3°
